K7JKM Weather Reports


time (UTC)temp
C
wind
direction
speed
KPH
gust
KPH
rain 1hr
cm
rain 24hr
cm
rain mn
cm
humidity
%
barometer
mb
20260505124514 11 136 0.0 0.0 0.00 0.00 0.00 64 1015.7
20260505123012 11 167 0.0 0.0 0.00 0.00 0.00 64 1015.6
20260505121508 11 119 0.0 0.0 0.00 0.00 0.00 64 1015.7
20260505120031 11 184 0.0 0.0 0.00 0.00 0.00 64 1015.6
20260505114526 11 212 0.0 1.6 0.00 0.00 0.00 65 1015.6
20260505113024 11 207 0.0 1.6 0.00 0.00 0.00 65 1015.5
20260505111521 11 195 0.0 0.0 0.00 0.00 0.00 65 1015.4
20260505101534 11 139 0.0 0.0 0.00 0.00 0.00 65 1015.2
20260505100025 11 171 0.0 0.0 0.00 0.00 0.00 66 1015.2
20260505094503 11 162 0.0 1.6 0.00 0.00 0.00 67 1015.1
20260505093008 11 148 0.0 0.0 0.00 0.00 0.00 69 1015.0
20260505091504 10 141 0.0 0.0 0.00 0.00 0.00 70 1015.0
20260505090006 10 143 0.0 0.0 0.00 0.00 0.00 69 1014.9
20260505084505 10 143 0.0 0.0 0.00 0.00 0.00 68 1014.9
20260505083008 10 143 0.0 0.0 0.00 0.00 0.00 68 1015.0
20260505081507 10 143 0.0 0.0 0.00 0.00 0.00 68 1014.9
20260505080006 10 150 0.0 0.0 0.00 0.00 0.00 68 1014.7
20260505074506 10 185 0.0 0.0 0.00 0.00 0.00 67 1014.6
20260505073008 10 172 0.0 1.6 0.00 0.00 0.00 67 1014.5
20260505071508 10 174 0.0 0.0 0.00 0.00 0.00 67 1014.4
20260505070011 11 214 0.0 0.0 0.00 0.00 0.00 67 1014.2
20260505064508 11 215 0.0 0.0 0.00 0.00 0.00 67 1014.2
20260505063011 11 214 0.0 0.0 0.00 0.00 0.00 67 1014.1
20260505061511 11 214 0.0 0.0 0.00 0.00 0.00 66 1014.0
20260505060008 11 214 0.0 0.0 0.00 0.00 0.00 66 1014.1
20260505054512 12 176 0.0 6.4 0.00 0.00 0.00 66 1014.0
20260505053012 12 248 0.0 4.8 0.00 0.00 0.00 65 1013.9
20260505051530 12 162 0.0 4.8 0.00 0.00 0.00 65 1013.8
20260505041514 13 166 0.0 1.6 0.00 0.00 0.00 62 1012.8
20260505040016 13 309 0.0 4.8 0.00 0.00 0.00 62 1012.5
20260505034516 13 236 0.0 8.0 0.00 0.00 0.00 61 1012.3
20260505033016 14 346 1.6 12.9 0.00 0.00 0.00 60 1012.2
20260505031518 15 302 0.0 8.0 0.00 0.00 0.00 58 1012.0
20260505030020 16 355 0.0 8.0 0.00 0.00 0.00 57 1011.8
20260505024521 17 4 0.0 8.0 0.00 0.00 0.00 54 1011.6
20260505023015 17 311 1.6 11.3 0.00 0.00 0.00 54 1011.4
20260505021518 18 311 1.6 6.4 0.00 0.00 0.00 52 1011.4
20260505020008 19 301 0.0 6.4 0.00 0.00 0.00 52 1011.3
20260505014507 20 295 0.0 11.3 0.00 0.00 0.00 51 1011.4
20260505013006 20 219 0.0 9.7 0.00 0.00 0.00 49 1011.4
20260505011504 21 359 0.0 9.7 0.00 0.00 0.00 47 1011.4
20260505010003 22 297 0.0 12.9 0.00 0.00 0.00 47 1011.5
20260505004507 24 134 1.6 8.0 0.00 0.00 0.00 42 1011.4
20260505003010 25 136 0.0 1.6 0.00 0.00 0.00 41 1011.4
20260505001512 25 240 0.0 1.6 0.00 0.00 0.00 42 1011.4
20260505000011 25 195 0.0 1.6 0.00 0.00 0.00 40 1011.6
20260504234509 25 290 0.0 1.6 0.00 0.00 0.00 39 1011.6
20260504233006 25 132 0.0 1.6 0.00 0.00 0.00 40 1011.7
20260504231503 25 143 0.0 1.6 0.00 0.00 0.00 41 1011.8
20260504230004 25 136 0.0 1.6 0.00 0.00 0.00 40 1012.0
20260504224522 24 207 0.0 4.8 0.00 0.00 0.00 42 1012.1
20260504223018 24 134 0.0 1.6 0.00 0.00 0.00 41 1012.2
20260504221516 24 246 0.0 3.2 0.00 0.00 0.00 43 1012.4
20260504220011 23 111 0.0 4.8 0.00 0.00 0.00 45 1012.4
20260504214508 23 124 0.0 6.4 0.00 0.00 0.00 45 1012.6
20260504213004 22 138 0.0 4.8 0.00 0.00 0.00 43 1012.8
20260504211503 22 120 0.0 1.6 0.00 0.00 0.00 45 1013.0
20260504210032 22 217 0.0 6.4 0.00 0.00 0.00 47 1013.1
20260504204523 22 221 0.0 1.6 0.00 0.00 0.00 45 1013.5
20260504203024 21 148 0.0 1.6 0.00 0.00 0.00 46 1013.8
20260504201516 20 122 0.0 3.2 0.00 0.00 0.00 49 1013.8
20260504200012 20 295 1.6 8.0 0.00 0.00 0.00 49 1013.9
20260504194511 20 141 0.0 3.2 0.00 0.00 0.00 50 1014.1
20260504193014 19 118 0.0 4.8 0.00 0.00 0.00 50 1014.0
20260504191528 18 122 0.0 1.6 0.00 0.00 0.00 52 1014.1
20260504190026 18 110 0.0 4.8 0.00 0.00 0.00 53 1014.3
20260504184524 18 153 0.0 1.6 0.00 0.00 0.00 54 1014.5
20260504183025 17 143 0.0 4.8 0.00 0.00 0.00 55 1014.4
20260504181517 17 124 0.0 3.2 0.00 0.00 0.00 55 1014.4
20260504180016 16 107 0.0 1.6 0.00 0.00 0.00 57 1014.3
20260504174512 16 214 0.0 1.6 0.00 0.00 0.00 58 1014.4
20260504173028 16 200 0.0 1.6 0.00 0.00 0.00 57 1014.3
20260504171526 15 121 0.0 1.6 0.00 0.00 0.00 58 1014.4